KN6KS Weather Reports


Display with metric or nautical units.
time (UTC)temp
F
wind
direction
speed
MPH
gust
MPH
rain 1hr
in
rain 24hr
in
rain mn
in
humidity
%
barometer
mb
20260507155418 73 148 2.0 2.0 0.00 0.00 0.00 36 1016.6
20260507154915 72 120 3.0 3.0 0.00 0.00 0.00 36 1016.7
20260507154412 72 199 1.0 1.0 0.00 0.00 0.00 38 1016.7
20260507153909 70 148 1.0 1.0 0.00 0.00 0.00 40 1016.9
20260507153405 69 114 3.0 3.0 0.00 0.00 0.00 40 1016.9
20260507152902 68 197 1.0 1.0 0.00 0.00 0.00 42 1017.0
20260507152358 69 198 2.0 2.0 0.00 0.00 0.00 42 1016.7
20260507151854 67 201 1.0 1.0 0.00 0.00 0.00 44 1016.7
20260507151351 67 224 0.0 0.0 0.00 0.00 0.00 45 1016.9
20260507150848 68 215 0.0 0.0 0.00 0.00 0.00 44 1017.0
20260507150345 65 230 0.0 0.0 0.00 0.00 0.00 47 1016.9
20260507145841 65 57 1.0 1.0 0.00 0.00 0.00 46 1017.0
20260507145338 65 228 0.0 0.0 0.00 0.00 0.00 46 1017.0
20260507144834 63 213 0.0 0.0 0.00 0.00 0.00 48 1016.9
20260507144332 62 61 1.0 2.0 0.00 0.00 0.00 50 1016.8
20260507143828 62 38 2.0 3.0 0.00 0.00 0.00 51 1016.9
20260507143325 63 148 1.0 1.0 0.00 0.00 0.00 49 1016.4
20260507142821 64 239 0.0 0.0 0.00 0.00 0.00 47 1016.7
20260507142318 63 238 0.0 0.0 0.00 0.00 0.00 49 1016.8
20260507141815 62 209 0.0 0.0 0.00 0.00 0.00 52 1016.4
20260507141311 61 45 1.0 2.0 0.00 0.00 0.00 54 1016.4
20260507140808 61 169 0.0 1.0 0.00 0.00 0.00 55 1016.6
20260507140305 60 169 1.0 1.0 0.00 0.00 0.00 55 1016.6
20260507135802 59 203 1.0 1.0 0.00 0.00 0.00 56 1016.3
20260507135259 59 214 1.0 1.0 0.00 0.00 0.00 56 1016.1
20260507134756 59 226 0.0 0.0 0.00 0.00 0.00 54 1016.3
20260507134252 58 226 0.0 0.0 0.00 0.00 0.00 57 1016.3
20260507133748 57 234 0.0 0.0 0.00 0.00 0.00 57 1016.3
20260507133245 57 222 0.0 1.0 0.00 0.00 0.00 57 1016.1
20260507132743 56 244 0.0 0.0 0.00 0.00 0.00 57 1016.2
20260507132239 56 257 1.0 1.0 0.00 0.00 0.00 58 1016.3
20260507131736 55 257 1.0 1.0 0.00 0.00 0.00 58 1016.1
20260507131233 55 232 1.0 1.0 0.00 0.00 0.00 61 1016.1
20260507130730 55 267 1.0 1.0 0.00 0.00 0.00 63 1016.0
20260507130228 55 237 0.0 0.0 0.00 0.00 0.00 63 1015.9
20260507125726 55 227 1.0 1.0 0.00 0.00 0.00 62 1016.0
20260507125223 55 245 0.0 0.0 0.00 0.00 0.00 60 1015.9
20260507124720 56 242 1.0 1.0 0.00 0.00 0.00 59 1015.9
20260507124217 56 251 1.0 1.0 0.00 0.00 0.00 59 1015.9
20260507123715 57 252 1.0 1.0 0.00 0.00 0.00 58 1015.8
20260507123212 57 226 0.0 0.0 0.00 0.00 0.00 58 1016.0
20260507122707 57 213 1.0 1.0 0.00 0.00 0.00 58 1015.9
20260507122203 58 201 0.0 0.0 0.00 0.00 0.00 55 1016.0
20260507121659 59 185 1.0 1.0 0.00 0.00 0.00 54 1016.0
20260507121155 59 226 0.0 0.0 0.00 0.00 0.00 53 1016.1
20260507120652 59 226 1.0 1.0 0.00 0.00 0.00 52 1016.2
20260507120149 59 220 1.0 1.0 0.00 0.00 0.00 53 1015.9
20260507115645 59 213 2.0 2.0 0.00 0.00 0.00 53 1015.9
20260507115140 59 187 3.0 3.0 0.00 0.00 0.00 52 1016.1
20260507114636 59 218 1.0 1.0 0.00 0.00 0.00 53 1016.1
20260507114134 58 201 2.0 2.0 0.00 0.00 0.00 54 1016.1
20260507113631 59 208 1.0 1.0 0.00 0.00 0.00 53 1016.1
20260507113128 59 190 1.0 2.0 0.00 0.00 0.00 51 1016.1
20260507112626 59 221 0.0 0.0 0.00 0.00 0.00 53 1016.1
20260507112122 60 190 1.0 2.0 0.00 0.00 0.00 50 1016.2
20260507111620 59 213 1.0 1.0 0.00 0.00 0.00 51 1016.0
20260507111116 60 225 1.0 1.0 0.00 0.00 0.00 50 1015.9
20260507110612 59 217 2.0 2.0 0.00 0.00 0.00 49 1016.1
20260507110109 59 211 1.0 1.0 0.00 0.00 0.00 51 1016.1
20260507105606 60 217 1.0 1.0 0.00 0.00 0.00 48 1016.2
20260507105102 59 227 1.0 1.0 0.00 0.00 0.00 49 1015.9
20260507104600 59 226 1.0 1.0 0.00 0.00 0.00 50 1015.9
20260507104055 58 227 0.0 1.0 0.00 0.00 0.00 51 1016.0
20260507103552 58 208 1.0 1.0 0.00 0.00 0.00 51 1016.0
20260507103049 58 236 0.0 1.0 0.00 0.00 0.00 55 1016.2
20260507102545 58 236 0.0 0.0 0.00 0.00 0.00 53 1016.0
20260507102042 59 236 0.0 0.0 0.00 0.00 0.00 52 1015.9
20260507101537 59 285 1.0 1.0 0.00 0.00 0.00 51 1016.0
20260507101034 60 220 1.0 1.0 0.00 0.00 0.00 48 1016.0
20260507100531 59 224 1.0 1.0 0.00 0.00 0.00 47 1016.1
20260507100029 60 243 0.0 0.0 0.00 0.00 0.00 51 1016.2
20260507095527 60 207 1.0 1.0 0.00 0.00 0.00 48 1015.8
20260507095023 61 208 1.0 1.0 0.00 0.00 0.00 47 1015.9
20260507094519 61 214 2.0 2.0 0.00 0.00 0.00 45 1015.7
20260507094017 61 243 1.0 1.0 0.00 0.00 0.00 49 1016.1
20260507093514 61 191 2.0 2.0 0.00 0.00 0.00 46 1016.0
20260507093013 61 222 1.0 1.0 0.00 0.00 0.00 46 1015.9
20260507092509 62 220 0.0 1.0 0.00 0.00 0.00 46 1016.1
20260507092006 62 200 1.0 2.0 0.00 0.00 0.00 45 1015.9
20260507091502 63 220 2.0 2.0 0.00 0.00 0.00 44 1016.2
20260507090958 63 191 2.0 2.0 0.00 0.00 0.00 44 1016.1
20260507090454 63 229 1.0 1.0 0.00 0.00 0.00 45 1016.2
20260507085951 63 238 2.0 2.0 0.00 0.00 0.00 44 1016.3
20260507085448 64 189 3.0 3.0 0.00 0.00 0.00 44 1016.1
20260507084944 63 193 2.0 2.0 0.00 0.00 0.00 45 1016.1
20260507084442 63 219 1.0 2.0 0.00 0.00 0.00 45 1016.0
20260507083939 63 192 3.0 3.0 0.00 0.00 0.00 44 1016.2
20260507083435 62 187 3.0 3.0 0.00 0.00 0.00 46 1016.2
20260507082931 62 192 2.0 2.0 0.00 0.00 0.00 47 1016.1
20260507082427 61 227 0.0 0.0 0.00 0.00 0.00 50 1016.4
20260507081924 62 195 1.0 2.0 0.00 0.00 0.00 49 1016.3
20260507081420 62 212 1.0 1.0 0.00 0.00 0.00 48 1016.4
20260507080917 62 187 2.0 2.0 0.00 0.00 0.00 48 1016.4
20260507080414 63 212 1.0 2.0 0.00 0.00 0.00 48 1016.3
20260507075909 63 209 1.0 1.0 0.00 0.00 0.00 47 1016.2
20260507075405 65 214 1.0 1.0 0.00 0.00 0.00 45 1016.4
20260507074902 64 227 2.0 2.0 0.00 0.00 0.00 44 1016.0
20260507074359 64 223 1.0 1.0 0.00 0.00 0.00 46 1016.1
20260507073856 64 223 0.0 0.0 0.00 0.00 0.00 47 1016.3
20260507073352 65 241 2.0 2.0 0.00 0.00 0.00 46 1016.3
20260507072850 65 267 3.0 3.0 0.00 0.00 0.00 45 1016.3
20260507072347 65 247 0.0 0.0 0.00 0.00 0.00 46 1016.2
20260507071844 66 196 2.0 2.0 0.00 0.00 0.00 44 1016.2
20260507071342 67 137 2.0 2.0 0.00 0.00 0.00 43 1016.0
20260507070837 67 137 3.0 3.0 0.00 0.00 0.00 41 1016.1
20260507070336 67 193 2.0 2.0 0.00 0.00 0.00 43 1016.0
20260507065832 66 192 3.0 3.0 0.00 0.00 0.00 44 1016.2
20260507065329 66 199 1.0 1.0 0.00 0.00 0.00 46 1016.0
20260507064826 66 229 0.0 0.0 0.00 0.00 0.00 47 1016.2
20260507064324 66 206 2.0 2.0 0.00 0.00 0.00 46 1016.1
20260507063822 66 145 2.0 2.0 0.00 0.00 0.00 46 1016.1
20260507063318 66 190 3.0 3.0 0.00 0.00 0.00 46 1016.2
20260507062815 66 146 3.0 3.0 0.00 0.00 0.00 47 1016.0
20260507062312 66 148 2.0 3.0 0.00 0.00 0.00 47 1015.9
20260507061810 66 158 3.0 3.0 0.00 0.00 0.00 47 1015.9
20260507061308 66 197 2.0 3.0 0.00 0.00 0.00 47 1016.0
20260507060806 66 167 2.0 2.0 0.00 0.00 0.00 45 1015.8
20260507060303 67 212 0.0 1.0 0.00 0.00 0.00 41 1016.1
20260507055759 67 203 1.0 1.0 0.00 0.00 0.00 43 1016.3
20260507055254 68 217 0.0 0.0 0.00 0.00 0.00 40 1016.1
20260507054751 69 222 0.0 0.0 0.00 0.00 0.00 38 1016.0
20260507054247 70 234 1.0 1.0 0.00 0.00 0.00 36 1016.0
20260507053745 70 246 1.0 1.0 0.00 0.00 0.00 36 1015.9
20260507053242 71 321 2.0 2.0 0.00 0.00 0.00 35 1016.0
20260507052741 71 234 1.0 1.0 0.00 0.00 0.00 34 1016.0
20260507052237 71 298 2.0 3.0 0.00 0.00 0.00 34 1016.1
20260507051735 71 251 2.0 2.0 0.00 0.00 0.00 34 1015.9
20260507051232 71 294 2.0 2.0 0.00 0.00 0.00 35 1015.8
20260507050728 71 309 4.0 5.0 0.00 0.00 0.00 36 1015.9
20260507050226 72 273 4.0 5.0 0.00 0.00 0.00 35 1015.7
20260507045722 72 253 4.0 5.0 0.00 0.00 0.00 35 1015.9
20260507045218 71 245 3.0 5.0 0.00 0.00 0.00 36 1015.8
20260507044716 72 267 4.0 6.0 0.00 0.00 0.00 36 1015.7
20260507044212 72 260 4.0 5.0 0.00 0.00 0.00 35 1015.6
20260507043708 72 268 4.0 6.0 0.00 0.00 0.00 35 1015.7
20260507043205 72 270 6.0 8.0 0.00 0.00 0.00 35 1015.9
20260507042702 72 295 5.0 7.0 0.00 0.00 0.00 36 1015.6
20260507042156 72 272 9.0 10.0 0.00 0.00 0.00 37 1015.6
20260507041654 72 278 6.0 7.0 0.00 0.00 0.00 36 1015.6
20260507041150 72 277 3.0 5.0 0.00 0.00 0.00 37 1015.4
20260507040648 72 279 7.0 8.0 0.00 0.00 0.00 36 1015.4
20260507040144 72 301 6.0 7.0 0.00 0.00 0.00 38 1015.3
20260507035640 72 273 4.0 6.0 0.00 0.00 0.00 39 1015.2
20260507035136 72 290 8.0 10.0 0.00 0.00 0.00 40 1015.4
20260507034633 72 266 4.0 5.0 0.00 0.00 0.00 41 1015.3
20260507034131 72 271 8.0 9.0 0.00 0.00 0.00 41 1015.2
20260507033629 72 260 8.0 8.0 0.00 0.00 0.00 42 1015.0
20260507033126 72 260 6.0 8.0 0.00 0.00 0.00 43 1015.2
20260507032623 72 270 6.0 7.0 0.00 0.00 0.00 43 1015.2
20260507032119 71 301 6.0 7.0 0.00 0.00 0.00 44 1014.9
20260507031616 71 242 5.0 7.0 0.00 0.00 0.00 46 1015.2
20260507031113 70 242 4.0 5.0 0.00 0.00 0.00 48 1014.9
20260507030609 70 277 6.0 7.0 0.00 0.00 0.00 48 1015.0
20260507030107 72 283 5.0 7.0 0.00 0.00 0.00 46 1015.0
20260507025604 73 322 5.0 6.0 0.00 0.00 0.00 44 1014.9
20260507025101 74 252 4.0 5.0 0.00 0.00 0.00 42 1014.7
20260507024559 74 279 6.0 7.0 0.00 0.00 0.00 43 1014.8
20260507024056 74 222 6.0 7.0 0.00 0.00 0.00 43 1014.7
20260507023551 74 245 6.0 7.0 0.00 0.00 0.00 43 1014.5
20260507023049 74 243 7.0 8.0 0.00 0.00 0.00 43 1014.8
20260507022546 74 261 8.0 9.0 0.00 0.00 0.00 42 1014.6
20260507022041 75 249 7.0 9.0 0.00 0.00 0.00 43 1014.5
20260507021537 75 241 9.0 9.0 0.00 0.00 0.00 42 1014.4
20260507021034 75 282 7.0 8.0 0.00 0.00 0.00 43 1014.4
20260507020531 75 250 8.0 9.0 0.00 0.00 0.00 42 1014.3
20260507020028 75 215 8.0 9.0 0.00 0.00 0.00 43 1014.6
20260507015526 76 251 8.0 9.0 0.00 0.00 0.00 43 1014.4
20260507015024 76 260 9.0 10.0 0.00 0.00 0.00 42 1014.2
20260507014520 77 241 11.0 14.0 0.00 0.00 0.00 41 1014.4
20260507014016 77 241 10.0 10.0 0.00 0.00 0.00 41 1014.4
20260507013513 78 234 9.0 11.0 0.00 0.00 0.00 39 1014.4
20260507013010 78 251 6.0 10.0 0.00 0.00 0.00 39 1014.4
20260507012507 78 244 5.0 7.0 0.00 0.00 0.00 36 1014.3
20260507012003 78 253 12.0 14.0 0.00 0.00 0.00 37 1014.1
20260507011501 78 270 11.0 14.0 0.00 0.00 0.00 37 1014.2
20260507010956 80 214 7.0 8.0 0.00 0.00 0.00 33 1014.1
20260507010451 80 276 6.0 7.0 0.00 0.00 0.00 31 1014.2
20260507005948 80 270 9.0 9.0 0.00 0.00 0.00 31 1014.1
20260507005445 80 257 8.0 10.0 0.00 0.00 0.00 34 1014.2
20260507004941 80 270 8.0 10.0 0.00 0.00 0.00 34 1014.1
20260507004438 80 243 13.0 16.0 0.00 0.00 0.00 32 1014.2
20260507003936 79 289 10.0 11.0 0.00 0.00 0.00 33 1014.0
20260507003431 79 232 6.0 7.0 0.00 0.00 0.00 35 1014.3
20260507002926 83 269 11.0 13.0 0.00 0.00 0.00 31 1014.4
20260507002422 82 280 1.0 1.0 0.00 0.00 0.00 21 1014.2
20260507001920 83 290 2.0 2.0 0.00 0.00 0.00 21 1014.2
20260507001416 82 260 4.0 5.0 0.00 0.00 0.00 21 1014.0
20260507000914 83 18 5.0 5.0 0.00 0.00 0.00 21 1014.3
20260507000409 82 293 0.0 0.0 0.00 0.00 0.00 22 1014.1
20260506235905 82 104 2.0 2.0 0.00 0.00 0.00 21 1014.1
20260506235402 82 271 3.0 5.0 0.00 0.00 0.00 21 1014.2
20260506234852 83 14 10.0 14.0 0.00 0.00 0.00 21 1014.2
20260506234350 82 71 5.0 8.0 0.00 0.00 0.00 22 1014.1
20260506233848 83 36 2.0 3.0 0.00 0.00 0.00 21 1014.1
20260506233344 82 45 4.0 5.0 0.00 0.00 0.00 22 1014.4
20260506232841 83 89 3.0 3.0 0.00 0.00 0.00 22 1014.2
20260506232336 82 83 5.0 7.0 0.00 0.00 0.00 22 1014.4
20260506231832 82 81 5.0 6.0 0.00 0.00 0.00 22 1014.5
20260506231330 82 71 4.0 6.0 0.00 0.00 0.00 23 1014.4
20260506230828 82 84 4.0 5.0 0.00 0.00 0.00 22 1014.3
20260506230325 82 50 3.0 3.0 0.00 0.00 0.00 22 1014.4
20260506225821 81 79 4.0 5.0 0.00 0.00 0.00 23 1014.5
20260506225318 81 56 9.0 11.0 0.00 0.00 0.00 22 1014.3
20260506224815 82 34 5.0 7.0 0.00 0.00 0.00 23 1014.6
20260506224312 82 74 8.0 9.0 0.00 0.00 0.00 22 1014.6
20260506223808 81 189 1.0 1.0 0.00 0.00 0.00 23 1014.5
20260506223303 81 46 3.0 3.0 0.00 0.00 0.00 22 1014.5
20260506222801 82 75 5.0 8.0 0.00 0.00 0.00 23 1014.8
20260506222256 83 45 4.0 6.0 0.00 0.00 0.00 22 1014.8
20260506221754 82 95 4.0 6.0 0.00 0.00 0.00 22 1014.9
20260506221252 82 109 2.0 6.0 0.00 0.00 0.00 22 1014.9
20260506220749 84 55 2.0 2.0 0.00 0.00 0.00 23 1014.9
20260506220244 83 195 2.0 2.0 0.00 0.00 0.00 23 1014.9
20260506215741 80 53 3.0 3.0 0.00 0.00 0.00 24 1015.0
20260506215237 82 351 5.0 6.0 0.00 0.00 0.00 24 1015.2
20260506214733 81 63 3.0 5.0 0.00 0.00 0.00 23 1015.4
20260506214231 81 56 4.0 7.0 0.00 0.00 0.00 24 1015.5
20260506213728 80 230 1.0 1.0 0.00 0.00 0.00 26 1015.5
20260506213225 80 16 10.0 11.0 0.00 0.00 0.00 25 1015.5
20260506212723 79 247 2.0 2.0 0.00 0.00 0.00 26 1015.3
20260506212218 79 38 7.0 8.0 0.00 0.00 0.00 25 1015.5
20260506211714 80 273 0.0 1.0 0.00 0.00 0.00 25 1015.5
20260506211210 80 103 7.0 11.0 0.00 0.00 0.00 25 1015.5
20260506210707 81 85 2.0 3.0 0.00 0.00 0.00 25 1015.5
20260506210204 81 184 4.0 6.0 0.00 0.00 0.00 25 1015.6
20260506205701 81 216 3.0 5.0 0.00 0.00 0.00 24 1015.8
20260506205156 81 160 4.0 5.0 0.00 0.00 0.00 24 1015.5
20260506204654 79 36 3.0 3.0 0.00 0.00 0.00 27 1015.7
20260506204151 79 91 4.0 6.0 0.00 0.00 0.00 26 1015.7
20260506203649 80 92 3.0 5.0 0.00 0.00 0.00 26 1015.7
20260506203146 78 231 3.0 6.0 0.00 0.00 0.00 27 1015.7
20260506202644 79 99 4.0 7.0 0.00 0.00 0.00 27 1015.9
20260506202139 80 52 2.0 3.0 0.00 0.00 0.00 26 1015.7
20260506201636 78 59 5.0 6.0 0.00 0.00 0.00 27 1015.9
20260506201133 79 140 3.0 3.0 0.00 0.00 0.00 26 1016.1
20260506200630 79 98 4.0 5.0 0.00 0.00 0.00 26 1016.0
20260506200126 79 162 3.0 3.0 0.00 0.00 0.00 26 1016.1
20260506195623 78 57 4.0 5.0 0.00 0.00 0.00 27 1015.9
20260506195119 78 37 5.0 8.0 0.00 0.00 0.00 27 1015.9
20260506194617 78 57 6.0 6.0 0.00 0.00 0.00 26 1016.1
20260506194113 77 298 2.0 2.0 0.00 0.00 0.00 30 1015.9
20260506193611 77 94 2.0 2.0 0.00 0.00 0.00 29 1016.1
20260506193108 77 256 0.0 1.0 0.00 0.00 0.00 29 1016.2
20260506192605 76 223 0.0 0.0 0.00 0.00 0.00 29 1015.9
20260506192101 78 354 2.0 2.0 0.00 0.00 0.00 30 1016.2
20260506191557 77 229 4.0 5.0 0.00 0.00 0.00 31 1015.9
20260506191053 75 78 4.0 5.0 0.00 0.00 0.00 30 1016.2
20260506190551 75 237 0.0 1.0 0.00 0.00 0.00 30 1016.3
20260506190048 75 234 4.0 5.0 0.00 0.00 0.00 31 1016.2
20260506185545 75 313 2.0 2.0 0.00 0.00 0.00 30 1016.3
20260506185041 75 357 2.0 5.0 0.00 0.00 0.00 32 1016.6
20260506184539 74 259 1.0 1.0 0.00 0.00 0.00 32 1016.3
20260506184036 74 24 4.0 6.0 0.00 0.00 0.00 33 1016.4
20260506183532 74 343 7.0 9.0 0.00 0.00 0.00 32 1016.7
20260506183029 74 252 3.0 3.0 0.00 0.00 0.00 32 1016.4
20260506182526 74 49 3.0 3.0 0.00 0.00 0.00 33 1016.8
20260506182023 72 229 0.0 1.0 0.00 0.00 0.00 31 1016.8
20260506181521 73 282 1.0 1.0 0.00 0.00 0.00 32 1016.7
20260506181018 72 308 3.0 3.0 0.00 0.00 0.00 34 1016.7
20260506180514 72 309 4.0 5.0 0.00 0.00 0.00 33 1016.4
20260506180011 72 327 2.0 2.0 0.00 0.00 0.00 38 1016.7
20260506175508 71 113 1.0 2.0 0.00 0.00 0.00 38 1016.9
20260506175004 71 106 3.0 5.0 0.00 0.00 0.00 38 1016.8
20260506174502 71 206 3.0 5.0 0.00 0.00 0.00 36 1016.8
20260506173958 71 159 5.0 6.0 0.00 0.00 0.00 36 1016.7
20260506173456 71 173 5.0 10.0 0.00 0.00 0.00 38 1016.8
20260506172952 70 168 3.0 3.0 0.00 0.00 0.00 38 1017.0
20260506172450 70 166 3.0 3.0 0.00 0.00 0.00 37 1016.8
20260506171946 68 240 3.0 5.0 0.00 0.00 0.00 41 1017.0
20260506171444 67 245 1.0 1.0 0.00 0.00 0.00 42 1016.8
20260506170941 67 193 4.0 6.0 0.00 0.00 0.00 43 1017.1
20260506170437 67 223 2.0 2.0 0.00 0.00 0.00 43 1017.1
20260506165930 67 201 4.0 5.0 0.00 0.00 0.00 43 1017.0
20260506165429 66 268 2.0 3.0 0.00 0.00 0.00 43 1017.0
20260506164924 65 120 2.0 2.0 0.00 0.00 0.00 44 1017.0
20260506164421 65 38 3.0 3.0 0.00 0.00 0.00 44 1017.1
20260506163914 65 242 3.0 3.0 0.00 0.00 0.00 45 1017.1
20260506163414 67 241 1.0 2.0 0.00 0.00 0.00 44 1017.0
20260506162908 66 178 3.0 5.0 0.00 0.00 0.00 44 1017.1
20260506162407 66 231 0.0 1.0 0.00 0.00 0.00 45 1017.1
20260506161858 65 226 0.0 1.0 0.00 0.00 0.00 45 1017.1
20260506161355 64 208 2.0 2.0 0.00 0.00 0.00 45 1017.0
20260506160854 66 39 2.0 3.0 0.00 0.00 0.00 45 1017.1
20260506160350 65 265 0.0 1.0 0.00 0.00 0.00 45 1017.2